| time (UTC) | temp F | wind direction | speed MPH | gust MPH | rain 1hr in | rain 24hr in | rain mn in | humidity % | barometer mb |
| 20260901161526 | 82 | 158 | 0.0 | 3.0 | 0.00 | 0.33 | 0.00 | 59 | 1013.1 |
| 20260901160020 | 82 | 161 | 0.0 | 2.0 | 0.00 | 0.33 | 0.00 | 60 | 1013.0 |
| 20260901154517 | 81 | 169 | 0.0 | 2.0 | 0.00 | 0.33 | 0.00 | 62 | 1013.2 |
| 20260901153019 | 79 | 179 | 0.0 | 1.0 | 0.00 | 0.33 | 0.00 | 65 | 1013.2 |
| 20260901151528 | 79 | 157 | 0.0 | 0.0 | 0.00 | 0.33 | 0.00 | 66 | 1013.3 |
| 20260901150013 | 78 | 179 | 0.0 | 0.0 | 0.00 | 0.33 | 0.00 | 67 | 1013.3 |
| 20260901144509 | 78 | 175 | 0.0 | 0.0 | 0.00 | 0.33 | 0.00 | 67 | 1013.2 |
| 20260901143008 | 78 | 104 | 0.0 | 1.0 | 0.00 | 0.33 | 0.00 | 67 | 1013.2 |
| 20260901141503 | 75 | 102 | 0.0 | 3.0 | 0.00 | 0.33 | 0.00 | 74 | 1013.1 |
| 20260901140133 | 73 | 97 | 0.0 | 4.0 | 0.00 | 0.33 | 0.00 | 78 | 1013.0 |
| 20260901134555 | 72 | 106 | 0.0 | 0.0 | 0.00 | 0.33 | 0.00 | 81 | 1012.9 |
| 20260901133055 | 69 | 103 | 0.0 | 0.0 | 0.00 | 0.33 | 0.00 | 86 | 1012.9 |
| 20260901131550 | 68 | 106 | 0.0 | 0.0 | 0.00 | 0.33 | 0.00 | 89 | 1012.6 |
| 20260901130048 | 67 | 103 | 0.0 | 0.0 | 0.00 | 0.33 | 0.00 | 89 | 1012.3 |
| 20260901124547 | 67 | 105 | 0.0 | 3.0 | 0.00 | 0.35 | 0.00 | 91 | 1012.1 |
| 20260901123046 | 67 | 103 | 0.0 | 0.0 | 0.00 | 0.35 | 0.00 | 91 | 1011.8 |
| 20260901121544 | 67 | 91 | 0.0 | 0.0 | 0.00 | 0.35 | 0.00 | 91 | 1011.7 |
| 20260901120044 | 67 | 91 | 0.0 | 0.0 | 0.00 | 0.00 | 0.00 | 91 | 1011.7 |
| 20260901114543 | 67 | 91 | 0.0 | 0.0 | 0.00 | 0.35 | 0.00 | 91 | 1011.7 |
| 20260901113042 | 68 | 91 | 0.0 | 0.0 | 0.00 | 0.35 | 0.00 | 90 | 1011.8 |
| 20260901111540 | 68 | 91 | 0.0 | 0.0 | 0.00 | 0.35 | 0.00 | 90 | 1011.7 |
| 20260901110038 | 68 | 91 | 0.0 | 0.0 | 0.00 | 0.35 | 0.00 | 89 | 1011.6 |
| 20260901104536 | 68 | 91 | 0.0 | 0.0 | 0.00 | 0.35 | 0.00 | 89 | 1011.5 |
| 20260901103034 | 69 | 91 | 0.0 | 0.0 | 0.00 | 0.35 | 0.00 | 88 | 1011.3 |
| 20260901101553 | 69 | 91 | 0.0 | 0.0 | 0.00 | 0.35 | 0.00 | 87 | 1011.2 |
| 20260901100037 | 69 | 91 | 0.0 | 0.0 | 0.00 | 0.35 | 0.00 | 86 | 1011.1 |
| 20260901094538 | 69 | 91 | 0.0 | 0.0 | 0.00 | 0.35 | 0.00 | 85 | 1011.2 |
| 20260901093029 | 70 | 91 | 0.0 | 0.0 | 0.00 | 0.35 | 0.00 | 84 | 1011.2 |
| 20260901091545 | 70 | 98 | 0.0 | 4.0 | 0.00 | 0.35 | 0.00 | 84 | 1011.2 |
| 20260901090028 | 70 | 107 | 1.0 | 6.0 | 0.00 | 0.35 | 0.00 | 83 | 1011.1 |
| 20260901084536 | 70 | 105 | 0.0 | 3.0 | 0.00 | 0.35 | 0.00 | 85 | 1011.1 |
| 20260901083038 | 70 | 105 | 0.0 | 2.0 | 0.00 | 0.35 | 0.00 | 85 | 1011.2 |
| 20260901081525 | 70 | 104 | 0.0 | 3.0 | 0.00 | 0.35 | 0.00 | 85 | 1011.3 |
| 20260901080058 | 70 | 104 | 0.0 | 0.0 | 0.00 | 0.35 | 0.00 | 88 | 1011.3 |
| 20260901074523 | 70 | 101 | 0.0 | 0.0 | 0.00 | 0.35 | 0.00 | 87 | 1011.2 |
| 20260901073023 | 70 | 166 | 0.0 | 0.0 | 0.00 | 0.35 | 0.00 | 87 | 1011.3 |
| 20260901071519 | 70 | 166 | 0.0 | 0.0 | 0.00 | 0.35 | 0.00 | 86 | 1011.3 |
| 20260901070026 | 71 | 166 | 0.0 | 0.0 | 0.00 | 0.35 | 0.00 | 85 | 1011.3 |
| 20260901064516 | 70 | 165 | 0.0 | 0.0 | 0.00 | 0.35 | 0.35 | 84 | 1011.3 |
| 20260901063015 | 71 | 165 | 0.0 | 0.0 | 0.00 | 0.35 | 0.35 | 83 | 1011.4 |
| 20260901061516 | 71 | 165 | 0.0 | 0.0 | 0.00 | 0.35 | 0.35 | 83 | 1011.5 |
| 20260901060014 | 71 | 165 | 0.0 | 0.0 | 0.00 | 0.35 | 0.35 | 82 | 1011.3 |
| 20260901054514 | 72 | 165 | 0.0 | 0.0 | 0.00 | 0.35 | 0.35 | 82 | 1011.2 |
| 20260901053017 | 73 | 160 | 0.0 | 0.0 | 0.00 | 0.35 | 0.35 | 81 | 1011.0 |
| 20260901051513 | 73 | 160 | 0.0 | 0.0 | 0.00 | 0.35 | 0.35 | 80 | 1011.1 |
| 20260901050013 | 74 | 160 | 0.0 | 0.0 | 0.00 | 0.35 | 0.35 | 78 | 1011.2 |
| 20260901044512 | 74 | 98 | 0.0 | 0.0 | 0.00 | 0.35 | 0.35 | 76 | 1011.3 |
| 20260901043024 | 75 | 101 | 0.0 | 0.0 | 0.00 | 0.35 | 0.35 | 73 | 1011.1 |
| 20260901041514 | 75 | 102 | 0.0 | 0.0 | 0.00 | 0.35 | 0.35 | 72 | 1011.3 |
| 20260901040012 | 76 | 102 | 0.0 | 0.0 | 0.00 | 0.35 | 0.35 | 71 | 1011.1 |
| 20260901034510 | 76 | 104 | 0.0 | 4.0 | 0.00 | 0.35 | 0.35 | 71 | 1010.9 |
| 20260901033017 | 75 | 103 | 0.0 | 3.0 | 0.00 | 0.35 | 0.35 | 72 | 1010.7 |
| 20260901031509 | 75 | 153 | 0.0 | 0.0 | 0.00 | 0.35 | 0.35 | 74 | 1010.7 |
| 20260901030014 | 75 | 99 | 0.0 | 0.0 | 0.00 | 0.35 | 0.35 | 72 | 1010.1 |
| 20260901024508 | 76 | 177 | 0.0 | 0.0 | 0.00 | 0.35 | 0.35 | 73 | 1009.9 |
| 20260901023010 | 76 | 173 | 0.0 | 3.0 | 0.00 | 0.35 | 0.35 | 72 | 1009.8 |
| 20260901021508 | 76 | 103 | 0.0 | 0.0 | 0.00 | 0.35 | 0.35 | 73 | 1009.6 |
| 20260901020012 | 76 | 103 | 0.0 | 0.0 | 0.00 | 0.35 | 0.35 | 73 | 1009.2 |
| 20260901014606 | 77 | 103 | 0.0 | 0.0 | 0.00 | 0.35 | 0.35 | 72 | 1008.9 |
| 20260901013007 | 77 | 105 | 0.0 | 0.0 | 0.00 | 0.35 | 0.35 | 70 | 1008.6 |
| 20260901011505 | 78 | 105 | 0.0 | 0.0 | 0.00 | 0.35 | 0.35 | 65 | 1008.6 |
| 20260901010004 | 79 | 105 | 0.0 | 0.0 | 0.00 | 0.35 | 0.35 | 62 | 1008.4 |
| 20260901004504 | 80 | 104 | 0.0 | 1.0 | 0.00 | 0.35 | 0.35 | 62 | 1008.4 |
| 20260901003004 | 81 | 128 | 0.0 | 0.0 | 0.00 | 0.35 | 0.35 | 59 | 1008.4 |
| 20260901001502 | 82 | 103 | 0.0 | 1.0 | 0.00 | 0.35 | 0.35 | 55 | 1008.4 |
| 20260901000002 | 82 | 104 | 1.0 | 4.0 | 0.00 | 0.35 | 0.35 | 55 | 1008.5 |
| 20260831234504 | 80 | 101 | 0.0 | 2.0 | 0.00 | 0.35 | 0.35 | 57 | 1008.5 |
| 20260831233001 | 79 | 91 | 0.0 | 6.0 | 0.00 | 0.35 | 0.35 | 63 | 1008.5 |
| 20260831231623 | 77 | 171 | 4.0 | 8.0 | 0.00 | 0.35 | 0.35 | 67 | 1008.6 |
| 20260831224633 | 75 | 172 | 1.0 | 8.0 | 0.00 | 0.35 | 0.35 | 74 | 1009.2 |
| 20260831223058 | 75 | 95 | 1.0 | 4.0 | 0.00 | 0.35 | 0.35 | 78 | 1009.1 |
| 20260831221608 | 73 | 99 | 2.0 | 10.0 | 0.00 | 0.35 | 0.35 | 78 | 1009.3 |
| 20260831220057 | 73 | 173 | 8.0 | 17.0 | 0.00 | 0.35 | 0.35 | 79 | 1009.6 |
| 20260831214603 | 71 | 179 | 7.0 | 13.0 | 0.02 | 0.35 | 0.35 | 79 | 1009.9 |
| 20260831213057 | 70 | 175 | 4.0 | 7.0 | 0.04 | 0.35 | 0.35 | 85 | 1010.2 |
| 20260831211607 | 69 | 171 | 5.0 | 15.0 | 0.06 | 0.35 | 0.35 | 87 | 1010.4 |
| 20260831210100 | 69 | 172 | 4.0 | 10.0 | 0.09 | 0.35 | 0.35 | 91 | 1010.8 |
| 20260831204554 | 69 | 167 | 3.0 | 9.0 | 0.10 | 0.33 | 0.33 | 92 | 1011.7 |
| 20260831203056 | 69 | 94 | 4.0 | 10.0 | 0.21 | 0.31 | 0.31 | 91 | 1012.2 |
| 20260831201557 | 68 | 175 | 4.0 | 8.0 | 0.22 | 0.28 | 0.28 | 91 | 1012.7 |
| 20260831200052 | 68 | 174 | 0.0 | 3.0 | 0.21 | 0.26 | 0.26 | 91 | 1013.3 |
| 20260831194559 | 68 | 172 | 1.0 | 3.0 | 0.18 | 0.22 | 0.22 | 90 | 1013.4 |
| 20260831193056 | 68 | 108 | 3.0 | 5.0 | 0.08 | 0.10 | 0.10 | 88 | 1013.8 |
| 20260831191551 | 69 | 123 | 0.0 | 5.0 | 0.05 | 0.07 | 0.07 | 87 | 1013.9 |
| 20260831190046 | 68 | 153 | 6.0 | 10.0 | 0.03 | 0.05 | 0.05 | 86 | 1013.1 |
| 20260831184542 | 69 | 129 | 5.0 | 19.0 | 0.02 | 0.04 | 0.04 | 86 | 1012.7 |
| 20260831183041 | 71 | 136 | 9.0 | 15.0 | 0.00 | 0.02 | 0.02 | 80 | 1012.5 |
| 20260831181539 | 72 | 146 | 7.0 | 19.0 | 0.00 | 0.02 | 0.02 | 76 | 1012.8 |
| 20260831180041 | 73 | 134 | 7.0 | 14.0 | 0.00 | 0.02 | 0.02 | 74 | 1012.0 |
| 20260831174536 | 75 | 152 | 6.0 | 16.0 | 0.00 | 0.02 | 0.02 | 72 | 1012.2 |
| 20260831173041 | 76 | 134 | 9.0 | 15.0 | 0.00 | 0.02 | 0.02 | 70 | 1012.0 |
| 20260831171532 | 78 | 143 | 6.0 | 15.0 | 0.00 | 0.02 | 0.02 | 65 | 1011.7 |
| 20260831170029 | 78 | 140 | 5.0 | 12.0 | 0.00 | 0.02 | 0.02 | 69 | 1011.3 |
| 20260831164527 | 79 | 123 | 5.0 | 14.0 | 0.00 | 0.02 | 0.02 | 67 | 1010.9 |
| 20260831163028 | 81 | 143 | 0.0 | 8.0 | 0.00 | 0.02 | 0.02 | 61 | 1010.5 |